Nebraska City, NE

10:04 PM CDT on September 18, 2019 (GMT -0500)
Nebraska City Municipal

Weather History for KAFK - August, 2019

Change the Weather History Date:

Wednesday, August 21, 2019

  Actual Average (KSDA) Record (KSDA)
Temperature  
Mean Temperature 73 °F -  
Max Temperature 80 °F 85 °F 98 °F (1955)
Min Temperature 66 °F 63 °F 46 °F (1956)
Cooling Degree Days 8    
Growing Degree Days 23 (Base 50)    
Moisture  
Dew Point 70 °F    
Average Humidity 93    
Maximum Humidity 100    
Minimum Humidity 80    
Precipitation  
Precipitation 0.37 in - - ()
Sea Level Pressure  
Sea Level Pressure 30.04 in    
Wind  
Wind Speed 6 mph ()    
Max Wind Speed 16 mph    
Max Gust Speed 24 mph    
Visibility 9.9 miles    
Events Rain , Thunderstorm    
Averages and records for this station are not official NWS values.
T = Trace of Precipitation, MM = Missing Value Source: Averaged Metar Reports

Daily Weather History Graph

Daily Weather History Graph

Search for Another Location

Airport or City:

Astronomy

Aug. 21, 2019 Rise Set
Actual Time 6:39 AM CDT 8:12 PM CDT
Civil Twilight 6:10 AM CDT 8:41 PM CDT
Nautical Twilight 5:36 AM CDT 9:16 PM CDT
Astronomical Twilight 4:59 AM CDT 9:53 PM CDT
Moon 11:29 PM CDT (8/21) 12:18 PM CDT (8/21)
Length of Visible Light 14h 30m
Length of Day
13h 33m
Waning Gibbous, 69% of the Moon is Illuminated
Aug 21
Waning Gibbous
Aug 23
Last Quarter
Aug 30
New
Sep 5
First Quarter
Sep 13
Full

Hourly Weather History & Observations

Time (CDT) Temp. Heat Index Dew Point Humidity Pressure Visibility Wind Dir Wind Speed Gust Speed Precip Events Conditions
12:15 AM 78.8 °F - 77.9 °F 97% 30.00 in 10.0 mi ENE 3.5 mph - N/A   Clear
12:35 AM 79.2 °F - 78.8 °F 99% 30.02 in 10.0 mi North 4.6 mph - N/A   Scattered Clouds
12:55 AM 79.9 °F - 79.0 °F 97% 30.02 in 10.0 mi Calm Calm - N/A   Scattered Clouds
1:15 AM 79.9 °F - 79.2 °F 98% 30.00 in 10.0 mi SSE 4.6 mph - N/A   Clear
1:35 AM 79.3 °F - 79.3 °F 100% 29.96 in 10.0 mi South 6.9 mph - N/A Thunderstorm Clear
1:55 AM 79.7 °F - 78.8 °F 97% 29.96 in 10.0 mi NE 4.6 mph - N/A Rain , Thunderstorm Light Thunderstorms and Rain
2:15 AM 80.2 °F 87.1 °F 78.8 °F 95% 29.94 in 10.0 mi SSE 10.4 mph - N/A Rain , Thunderstorm Light Thunderstorms and Rain
2:35 AM 79.7 °F - 78.8 °F 97% 29.92 in 10.0 mi WNW 8.1 mph - N/A Rain , Thunderstorm Light Thunderstorms and Rain
2:55 AM 78.8 °F - 78.4 °F 99% 29.93 in 10.0 mi Calm Calm - N/A Rain , Thunderstorm Light Thunderstorms and Rain
3:15 AM 77.2 °F - 75.0 °F 93% 29.95 in 10.0 mi NW 3.5 mph - N/A Rain , Thunderstorm Light Thunderstorms and Rain
3:35 AM 76.6 °F - 75.7 °F 97% 29.97 in 10.0 mi NNE 3.5 mph - N/A Rain , Thunderstorm Light Thunderstorms and Rain
3:55 AM 77.4 °F - 77.4 °F 100% 29.95 in 10.0 mi NNE 6.9 mph - 0.01 in Rain Light Rain
4:15 AM 77.0 °F - 75.4 °F 95% 30.00 in 10.0 mi South 15.0 mph - 0.01 in Thunderstorm Thunderstorm
4:35 AM 72.1 °F - 68.2 °F 87% 30.02 in 7.0 mi West 11.5 mph 20.7 mph 0.17 in Rain , Thunderstorm Light Thunderstorms and Rain
4:55 AM 70.5 °F - 68.7 °F 94% 30.04 in 5.0 mi West 10.4 mph - 0.26 in Rain , Thunderstorm Heavy Thunderstorms and Rain
5:15 AM 70.7 °F - 67.6 °F 90% 30.04 in 10.0 mi West 16.1 mph 24.2 mph 0.02 in Rain , Thunderstorm Thunderstorms and Rain
5:35 AM 69.6 °F - 67.6 °F 93% 30.08 in 10.0 mi North 9.2 mph - 0.04 in Rain , Thunderstorm Light Thunderstorms and Rain
5:55 AM 69.8 °F - 67.8 °F 93% 30.07 in 10.0 mi Calm Calm - 0.06 in Rain , Thunderstorm Light Thunderstorms and Rain
6:15 AM 69.4 °F - 68.4 °F 96% 30.03 in 10.0 mi SW 5.8 mph - 0.01 in Rain Light Rain
6:35 AM 69.4 °F - 68.2 °F 96% 30.03 in 10.0 mi WSW 5.8 mph - 0.03 in Rain Light Rain
6:55 AM 69.1 °F - 68.4 °F 98% 30.03 in 10.0 mi WSW 9.2 mph - 0.03 in   Light Drizzle
7:15 AM 68.9 °F - 68.2 °F 98% 30.07 in 10.0 mi SW 6.9 mph - N/A   Clear
7:35 AM 68.5 °F - 68.2 °F 99% 30.07 in 10.0 mi Calm Calm - N/A Rain Light Rain
7:55 AM 68.9 °F - 68.7 °F 99% 30.06 in 10.0 mi NNW 4.6 mph - N/A   Scattered Clouds
8:15 AM 69.3 °F - 69.1 °F 99% 30.05 in 10.0 mi NNE 6.9 mph - N/A   Scattered Clouds
8:35 AM 70.0 °F - 69.4 °F 98% 30.04 in 10.0 mi NNE 4.6 mph - N/A   Clear
8:55 AM 71.2 °F - 70.0 °F 96% 30.03 in 10.0 mi NNE 3.5 mph - N/A   Clear
9:15 AM 72.0 °F - 70.2 °F 94% 30.04 in 10.0 mi Calm Calm - N/A   Clear
9:35 AM 72.7 °F - 70.3 °F 92% 30.06 in 10.0 mi Calm Calm - N/A   Clear
9:55 AM 73.0 °F - 70.7 °F 92% 30.04 in 10.0 mi North 6.9 mph - N/A   Clear
10:15 AM 72.7 °F - 71.4 °F 96% 30.05 in 10.0 mi North 5.8 mph - N/A   Clear
10:35 AM 73.4 °F - 72.1 °F 96% 30.06 in 10.0 mi North 8.1 mph - N/A   Mostly Cloudy
10:55 AM 73.9 °F - 71.6 °F 92% 30.09 in 10.0 mi NNW 9.2 mph - N/A   Overcast
11:15 AM 73.2 °F - 71.2 °F 93% 30.08 in 10.0 mi North 9.2 mph - N/A   Overcast
11:35 AM 72.9 °F - 71.1 °F 94% 30.05 in 10.0 mi NE 8.1 mph - N/A   Scattered Clouds
11:55 AM 73.4 °F - 71.8 °F 95% 30.07 in 10.0 mi North 3.5 mph - N/A   Clear
12:15 PM 74.1 °F - 71.6 °F 92% 30.08 in 10.0 mi Calm Calm - N/A   Mostly Cloudy
12:35 PM 73.9 °F - 71.2 °F 91% 30.08 in 10.0 mi NNE 4.6 mph - N/A   Overcast
12:55 PM 74.3 °F - 71.6 °F 91% 30.09 in 10.0 mi NNW 3.5 mph - N/A Rain Light Rain
1:15 PM 73.6 °F - 71.4 °F 93% 30.09 in 10.0 mi Calm Calm - N/A   Overcast
1:35 PM 73.9 °F - 72.1 °F 94% 30.04 in 10.0 mi ENE 10.4 mph - N/A Rain Light Rain
1:55 PM 73.4 °F - 72.5 °F 97% 30.02 in 10.0 mi North 13.8 mph 19.6 mph 0.01 in   Overcast
2:15 PM 73.4 °F - 71.8 °F 95% 30.05 in 10.0 mi North 9.2 mph - N/A   Overcast
2:35 PM 74.3 °F - 71.8 °F 92% 30.05 in 10.0 mi NNE 9.2 mph - N/A   Overcast
2:55 PM 73.6 °F - 71.6 °F 93% 30.05 in 10.0 mi NE 9.2 mph - N/A   Overcast
3:15 PM 74.1 °F - 71.8 °F 92% 30.05 in 10.0 mi NE 12.7 mph - N/A   Overcast
3:35 PM 73.6 °F - 71.1 °F 92% 30.06 in 10.0 mi ENE 9.2 mph - N/A   Overcast
3:55 PM 72.1 °F - 69.8 °F 92% 30.07 in 10.0 mi NE 12.7 mph - N/A   Overcast
4:15 PM 72.5 °F - 70.0 °F 92% 30.05 in 10.0 mi NNE 9.2 mph - N/A   Overcast
4:35 PM 72.7 °F - 69.8 °F 91% 30.05 in 10.0 mi NNE 10.4 mph - N/A   Mostly Cloudy
4:55 PM 72.5 °F - 69.8 °F 91% 30.03 in 10.0 mi NNE 13.8 mph - N/A   Mostly Cloudy
5:15 PM 72.0 °F - 70.2 °F 94% 30.03 in 10.0 mi NE 9.2 mph 16.1 mph N/A Rain Light Rain
5:35 PM 71.8 °F - 70.2 °F 95% 30.04 in 10.0 mi NE 11.5 mph - N/A   Overcast
5:55 PM 71.6 °F - 69.1 °F 92% 30.04 in 10.0 mi NE 6.9 mph - N/A   Overcast
6:15 PM 71.2 °F - 67.6 °F 88% 30.04 in 10.0 mi NNE 10.4 mph - N/A   Overcast
6:35 PM 70.0 °F - 64.4 °F 82% 30.04 in 10.0 mi NE 8.1 mph - N/A   Overcast
6:55 PM 68.9 °F - 63.7 °F 83% 30.04 in 10.0 mi NNE 5.8 mph - N/A   Overcast
7:15 PM 68.9 °F - 62.4 °F 80% 30.04 in 10.0 mi NNE 6.9 mph - N/A   Overcast
7:35 PM 68.4 °F - 63.0 °F 83% 30.04 in 10.0 mi NNE 3.5 mph - N/A   Overcast
7:55 PM 68.4 °F - 63.5 °F 84% 30.04 in 10.0 mi Calm Calm - N/A   Overcast
8:15 PM 67.8 °F - 64.4 °F 89% 30.03 in 10.0 mi NNE 3.5 mph - N/A Rain Light Rain
8:35 PM 67.3 °F - 65.3 °F 93% 30.03 in 10.0 mi NE 3.5 mph - N/A   Overcast
8:55 PM 67.6 °F - 63.7 °F 87% 30.02 in 10.0 mi ENE 4.6 mph - N/A   Overcast
9:15 PM 68.0 °F - 63.0 °F 84% 30.02 in 10.0 mi East 3.5 mph - N/A   Overcast
9:35 PM 68.0 °F - 64.2 °F 88% 30.03 in 10.0 mi East 3.5 mph - N/A   Overcast
9:55 PM 67.1 °F - 64.8 °F 92% 30.04 in 10.0 mi NNE 3.5 mph - N/A   Overcast
10:15 PM 67.1 °F - 65.3 °F 94% 30.04 in 10.0 mi Calm Calm - N/A   Mostly Cloudy
10:35 PM 66.6 °F - 64.9 °F 95% 30.05 in 10.0 mi NNE 4.6 mph - N/A   Mostly Cloudy
10:55 PM 66.4 °F - 64.9 °F 95% 30.07 in 10.0 mi North 6.9 mph - N/A   Mostly Cloudy
11:15 PM 67.8 °F - 65.3 °F 92% 30.08 in 10.0 mi NNE 9.2 mph - N/A   Overcast
11:35 PM 67.8 °F - 64.9 °F 90% 30.07 in 10.0 mi NE 6.9 mph - N/A   Overcast
11:55 PM 66.7 °F - 65.3 °F 95% 30.06 in 10.0 mi NE 5.8 mph - N/A   Scattered Clouds